Flag for Germany Weather past 2 weeks in Demmin, Mecklenburg-Western Pomerania, Germany

Now
66 °F

Partly sunny.


Feels Like: 66 °F
Forecast: 55 / 67 °F
Wind: 3 mph from West

Location: Greifswald

Current Time: Oct 1, 2014 at 5:06:23 PM

Latest Report: Oct 1, 2014 at 4:00 PM


Visibility: 6 mi

Pressure: 30.30 "Hg

Humidity: 72%

Dew point: 57 °F

Location of DemminLocation

Historic Weather in Demmin — Graph

°F

Demmin temperature yesterday

Maximum temperature yesterday: 59 °F (at 1:00 PM)
Minimum temperature yesterday: 55 °F (at 1:00 AM)
Average temperature yesterday: 57 °F

Past Weeks' High & Low Weather Summary

 TemperatureHumidityPressure
High71 °F (Sep 18, 4:00 PM)100% (Sep 20, 8:00 AM)30.33 "Hg (Sep 20, 8:00 AM)
Low46 °F (Sep 23, 9:00 PM)50% (Sep 27, 2:00 PM)29.72 "Hg (Sep 22, 7:00 AM)
Average57 °F83%30.05 "Hg
* Reported Sep 16 4:00 PM — Oct 1 4:00 PM, Demmin, Weather by CustomWeather, © 2014

Note: Actual official high and low records may vary slightly from our data, if they occured in-between our weather recording intervals... More about our weather records

Advertising

Demmin weather history for previous 24 hours

 ConditionsComfort  
Time TempWeatherWind HumidityBarometerVisibility
4:00 PM
Oct 1
66 °FPartly sunny.3 mph72%30.30 "Hg6 mi
3:00 PM65 °FOvercast.2 mph72%30.30 "Hg6 mi
2:00 PM66 °FOvercast.2 mph73%30.31 "Hg6 mi
1:00 PM64 °FFog.2 mph79%30.31 "Hg3 mi
12:00 PM60 °FFog.1 mph93%30.31 "Hg2 mi
11:00 AM59 °FFog.2 mph98%30.31 "Hg0 mi
10:00 AM59 °FFog.2 mph98%30.30 "Hg1 mi
9:00 AM58 °FFog.1 mph98%30.29 "Hg0 mi
8:00 AM58 °FFog.1 mph99%30.28 "Hg0 mi
7:00 AM58 °FFog.1 mph99%30.27 "Hg0 mi
6:00 AM58 °FFog.1 mph98%30.28 "Hg1 mi
4:00 AM58 °FFog.2 mph96%30.28 "Hg2 mi
3:00 AM58 °FLow clouds.2 mph98%30.28 "Hg1 mi
2:00 AM58 °FLight rain. Low clouds.2 mph98%30.28 "Hg1 mi
1:00 AM58 °FLight rain. Low clouds.2 mph98%30.28 "Hg1 mi
12:00 AM58 °FLow clouds.2 mph98%30.28 "Hg1 mi
11:00 PM
Sep 30
58 °FOvercast.2 mph98%30.28 "Hg1 mi
10:00 PM58 °FDrizzle. Overcast.2 mph97%30.27 "Hg1 mi
9:00 PM58 °FDrizzle. Overcast.1 mph97%30.28 "Hg17 mi
8:00 PM58 °FFog.1 mph96%30.27 "Hg1 mi
7:00 PM58 °FLow clouds.1 mph94%30.27 "Hg2 mi
6:00 PM58 °FFog.1 mph93%30.25 "Hg4 mi
5:00 PM58 °FOvercast.2 mph88%30.25 "Hg5 mi
Weather by CustomWeather, © 2014

See weather overviewHow to use our weather pages